Meteo Giornale » Osservazioni meteo Stati Uniti (USA) » Wainwright
ore: 16:29 - Osservazioni Meteo Wainwright
Lat. 64° 50' N Lon. 147° 37' W Alt. 137 metri s.l.m.
10 °C
Coperto
Temp. 24 Ore
6 °C
12 °C
Ovest/Nord-Ovest
16.7 Km/h
Dew point 7 °C
Umidità 81 %
Visibilità 10 Km
Il sole sorge alle ore 06:29
Il sole tramonta alle ore 21:12
| Data e Ora | Cielo e Fenomeni | T °C | DP °C | Um. % | Pres. hPa | Vis. km | Vento km/h | |
|---|---|---|---|---|---|---|---|---|
| Oggi h: 16:29 | Coperto | 10 | 7 | 81 | 1006 | 10 | O/NO 16.7 | |
| Oggi h: 16:04 | Pioggia | 10 | 6 | 76 | 1006 | 14 | O/NO 14.8 | |
| Oggi h: 15:55 | Coperto | 10 | 6 | 76 | 1006 | 10 | O/NO 18.5 | |
| Oggi h: 15:40 | Coperto | 9 | 7 | 87 | 1006 | 10 | O 16.7 | |
| Oggi h: 14:55 | Pioggia Foschia | 9 | 7 | 87 | 1006 | 10 | O/NO 11.1 | |
| Oggi h: 13:55 | Pioggia | 9 | 6 | 81 | 1005 | 10 | O 14.8 | |
| Oggi h: 12:55 | Pioggia Foschia | 9 | 6 | 81 | 1005 | 10 | NO 16.7 | |
| Oggi h: 12:35 | Pioggia | 9 | 6 | 81 | 1005 | 11 | NO 16.7 | |
| Oggi h: 12:29 | Coperto | 9 | 6 | 81 | 1005 | 10 | NO 14.8 | |
| Oggi h: 12:04 | Pioggia | 8 | 6 | 87 | 1004 | 10 | O/NO 16.7 | |
| Oggi h: 11:55 | Molto Nuvoloso | 8 | 6 | 87 | 1004 | 10 | NO 18.5 | |
| Oggi h: 10:55 | Coperto | 8 | 6 | 87 | 1004 | 10 | O/NO 16.7 | |
| Oggi h: 10:33 | Coperto | 7 | 7 | 100 | 1004 | 14 | O/NO 14.8 | |
| Oggi h: 10:21 | Pioggia Foschia | 7 | 7 | 100 | 1004 | 10 | NO 11.1 | |
| Oggi h: 10:12 | Coperto | 7 | 6 | 93 | 1004 | 13 | NO 13 | |
| Oggi h: 09:55 | Pioggia Foschia | 7 | 7 | 100 | 1003 | 10 | O/NO 13 | |
| Oggi h: 08:55 | Pioggia | 7 | 6 | 93 | 1003 | 14 | NO 13 | |
| Oggi h: 08:30 | Pioggia | 7 | 6 | 93 | 1003 | 13 | O/NO 11.1 | |
| Oggi h: 07:55 | Pioggia | 6 | 6 | 100 | 1003 | 14 | O/NO 13 | |
| Oggi h: 07:37 | Pioggia | 7 | 7 | 100 | 1003 | 14 | O/NO 14.8 | |
| Oggi h: 07:32 | Pioggia | 7 | 7 | 100 | 1003 | 10 | O/NO 11.1 | |
| Oggi h: 07:30 | Coperto | 7 | 7 | 100 | 1003 | 10 | O/NO 11.1 | |
| Oggi h: 07:15 | Coperto | 7 | 7 | 100 | 1003 | 10 | O/NO 11.1 | |
| Oggi h: 06:55 | Foschia | 7 | 7 | 100 | 1003 | 8 | O/NO 14.8 | |
| Oggi h: 06:30 | Coperto | 7 | 7 | 100 | 1003 | 10 | O/NO 14.8 | |
| Oggi h: 06:10 | Coperto | 7 | 7 | 100 | 1003 | 10 | O 11.1 | |
| Oggi h: 05:55 | Coperto | 7 | 7 | 100 | 1003 | 10 | O 14.8 | |
| Oggi h: 05:40 | Coperto | 7 | 7 | 100 | 1003 | 10 | O/SO 16.7 | |
| Oggi h: 05:30 | Coperto | 7 | 7 | 100 | 1003 | 10 | O/SO 14.8 | |
| Oggi h: 05:25 | Coperto | 7 | 7 | 100 | 1003 | 10 | O/SO 14.8 | |
| Oggi h: 05:20 | Coperto | 7 | 7 | 100 | 1003 | 10 | O/SO 13 | |
| Oggi h: 04:55 | Coperto | 7 | 7 | 100 | 1003 | 10 | SO 13 | |
| Oggi h: 04:25 | Coperto | 8 | 8 | 100 | 1003 | 10 | O 9.3 | |
| Oggi h: 04:20 | Coperto | 8 | 8 | 100 | 1003 | 10 | O/SO 11.1 | |
| Oggi h: 04:10 | Coperto | 8 | 8 | 100 | 1003 | 14 | O 13 | |
| Oggi h: 03:55 | Molto Nuvoloso | 8 | 8 | 100 | 1003 | 14 | O 13 | |
| Oggi h: 03:45 | Molto Nuvoloso | 8 | 8 | 100 | 1003 | 14 | O/SO 13 | |
| Oggi h: 03:35 | Molto Nuvoloso | 8 | 8 | 100 | 1003 | 14 | O/SO 14.8 | |
| Oggi h: 03:30 | Coperto | 8 | 8 | 100 | 1003 | 14 | O/SO 13 | |
| Oggi h: 03:10 | Coperto | 8 | 8 | 100 | 1003 | 14 | O/SO 13 | |
| Oggi h: 02:55 | Coperto | 8 | 8 | 100 | 1003 | 14 | SO 11.1 | |
| Oggi h: 02:25 | Coperto | 8 | 8 | 100 | 1003 | 14 | S/SO 11.1 | |
| Oggi h: 02:00 | Coperto | 8 | 8 | 100 | 1003 | 14 | S 11.1 | |
| Oggi h: 01:55 | Coperto | 8 | 8 | 100 | 1003 | 14 | S 11.1 | |
| Oggi h: 01:45 | Coperto | 8 | 8 | 100 | 1003 | 14 | S 9.3 | |
| Oggi h: 01:35 | Coperto | 9 | 9 | 100 | 1003 | 14 | S 9.3 | |
| Oggi h: 01:10 | Coperto | 9 | 9 | 100 | 1003 | 14 | S 7.4 | |
| Oggi h: 00:55 | Coperto | 9 | 9 | 100 | 1003 | 13 | S 7.4 | |
| Oggi h: 00:53 | Coperto | 9 | 9 | 100 | 1003 | 13 | S 7.4 | |
| Oggi h: 00:33 | Coperto | 9 | 9 | 100 | 1003 | 13 | S 7.4 | |
| Oggi h: 00:29 | Pioggia | 9 | 9 | 100 | 1003 | 14 | N 5.5 | |
| Oggi h: 00:24 | Pioggia | 9 | 9 | 100 | 1004 | 10 | S 7.4 | |
| Ieri h: 23:55 | Coperto | 9 | 9 | 100 | 1004 | 10 | N 5.5 | |
| Ieri h: 23:44 | Coperto | 9 | 9 | 100 | 1004 | 10 | N 0 | |
| Ieri h: 23:37 | Pioggia Foschia | 9 | 9 | 100 | 1004 | 8 | S 7.4 | |
| Ieri h: 23:27 | Pioggia | 9 | 9 | 100 | 1004 | 14 | N 5.5 | |
| Ieri h: 22:55 | Coperto | 9 | 9 | 100 | 1004 | 14 | N 5.5 | |
| Ieri h: 22:46 | Coperto | 9 | 9 | 100 | 1004 | 13 | E 7.4 | |
| Ieri h: 22:41 | Molto Nuvoloso | 9 | 9 | 100 | 1004 | 14 | E/NE 7.4 | |
| Ieri h: 22:36 | Molto Nuvoloso | 9 | 9 | 100 | 1004 | 13 | N 5.5 | |
| Ieri h: 22:35 | Pioggia | 9 | 9 | 100 | 1004 | 13 | N 0 | |
| Ieri h: 22:15 | Pioggia | 9 | 9 | 100 | 1005 | 14 | N 0 | |
| Ieri h: 21:55 | Molto Nuvoloso | 9 | 9 | 100 | 1005 | 10 | N 0 | |
| Ieri h: 20:55 | Coperto | 10 | 10 | 100 | 1005 | 13 | N 0 | |
| Ieri h: 19:55 | Poco Nuvoloso | 10 | 10 | 100 | 1006 | 10 | N 0 | |
| Ieri h: 18:55 | Nuvoloso | 11 | 9 | 87 | 1006 | 11 | O/NO 14.8 | |
| Ieri h: 17:55 | Coperto | 12 | 9 | 81 | 1007 | 10 | SO 11.1 | |
| Ieri h: 17:30 | Nuvoloso | 11 | 11 | 100 | 1007 | 14 | E 9.3 | |
| Ieri h: 17:15 | Coperto | 11 | 11 | 100 | 1007 | 13 | E/NE 9.3 | |
| Ieri h: 17:10 | Molto Nuvoloso | 11 | 11 | 100 | 1007 | 13 | E/NE 11.1 | |
| Ieri h: 17:00 | Molto Nuvoloso | 11 | 11 | 100 | 1007 | 13 | E/NE 7.4 | |
| Ieri h: 16:55 | Molto Nuvoloso | 11 | 11 | 100 | 1007 | 13 | E/NE 9.3 | |



